ECHOSTAR 15

Last updated on Wed Mar 11 2026 00:02:52 GMT+0000 (Coordinated Universal Time)

1 36792U 10034A 26069.44280792 .00000001 00000+0 00000+0 0 9993 2 36792 0.0368 273.8841 0001980 76.4324 218.3795 1.00272359 57335
UTC large
Height (km)
Speed (km/s)
/
Latitude / Longitude
Inclination (degrees)
Orbital Period (minutes)
Azimuth
Elevation
Range (km)
Doppler Factor

Next 0 passes for location: London (51.5072 / 0.1276)

Sorry there are no passes over London.